Time,TemperatureF,DewpointF,PressureIn,WindDirection,WindDirectionDegrees,WindSpeedMPH,WindSpeedGustMPH,Humidity,HourlyPrecipIn,Conditions,Clouds,dailyrainin,SoftwareType,DateUTC
2013-08-01 00:05:00,66.3,65.1,29.90,WSW,252,1.0,3.0,96,0.00,,,0.00,Wunderground v.1.15,2013-08-01 05:05:00,
2013-08-01 00:11:00,66.4,65.2,29.90,WSW,252,1.0,2.0,96,0.00,,,0.00,Wunderground v.1.15,2013-08-01 05:11:00,
2013-08-01 00:17:00,66.4,65.2,29.90,WSW,252,2.0,3.0,96,0.00,,,0.00,Wunderground v.1.15,2013-08-01 05:17:00,
2013-08-01 00:22:00,66.3,64.8,29.90,WSW,252,1.0,2.0,95,0.00,,,0.00,Wunderground v.1.15,2013-08-01 05:22:00,
2013-08-01 00:28:00,66.2,65.0,29.90,WSW,252,0.0,2.0,96,0.00,,,0.00,Wunderground v.1.15,2013-08-01 05:28:00,
2013-08-01 00:34:00,66.2,64.7,29.90,WSW,252,0.0,0.0,95,0.00,,,0.00,Wunderground v.1.15,2013-08-01 05:34:00,
2013-08-01 00:39:00,66.2,64.7,29.90,WSW,252,0.0,0.0,95,0.00,,,0.00,Wunderground v.1.15,2013-08-01 05:39:00,
2013-08-01 00:45:00,66.1,64.6,29.90,WSW,252,0.0,0.0,95,0.00,,,0.00,Wunderground v.1.15,2013-08-01 05:45:00,
2013-08-01 00:50:00,66.0,64.5,29.90,WSW,252,0.0,0.0,95,0.00,,,0.00,Wunderground v.1.15,2013-08-01 05:50:00,
2013-08-01 00:56:00,65.9,64.7,29.90,WSW,252,0.0,3.0,96,0.00,,,0.00,Wunderground v.1.15,2013-08-01 05:56:00,
2013-08-01 01:02:00,65.9,64.7,29.90,WSW,252,2.0,4.0,96,0.00,,,0.00,Wunderground v.1.15,2013-08-01 06:02:00,
2013-08-01 01:07:00,65.9,64.7,29.90,WSW,252,3.0,4.0,96,0.00,,,0.00,Wunderground v.1.15,2013-08-01 06:07:00,
2013-08-01 01:13:00,65.9,64.7,29.90,WSW,252,4.0,5.0,96,0.00,,,0.00,Wunderground v.1.15,2013-08-01 06:13:00,
2013-08-01 01:19:00,65.7,64.5,29.90,WSW,252,4.0,5.0,96,0.00,,,0.00,Wunderground v.1.15,2013-08-01 06:19:00,
2013-08-01 01:25:00,65.4,64.2,29.90,WSW,252,3.0,4.0,96,0.00,,,0.00,Wunderground v.1.15,2013-08-01 06:25:00,
2013-08-01 01:30:00,65.2,64.0,29.90,WSW,252,3.0,3.0,96,0.00,,,0.00,Wunderground v.1.15,2013-08-01 06:30:00,
2013-08-01 01:36:00,65.0,63.8,29.90,WSW,252,3.0,3.0,96,0.00,,,0.00,Wunderground v.1.15,2013-08-01 06:36:00,
2013-08-01 01:41:00,64.9,63.7,29.90,WSW,252,2.0,2.0,96,0.00,,,0.00,Wunderground v.1.15,2013-08-01 06:41:00,
2013-08-01 01:47:00,64.8,63.6,29.90,WSW,252,1.0,2.0,96,0.00,,,0.00,Wunderground v.1.15,2013-08-01 06:47:00,
2013-08-01 01:53:00,64.7,63.5,29.90,WSW,252,0.0,0.0,96,0.00,,,0.00,Wunderground v.1.15,2013-08-01 06:53:00,
2013-08-01 01:59:00,64.6,63.7,29.90,WSW,252,0.0,0.0,97,0.00,,,0.00,Wunderground v.1.15,2013-08-01 06:59:00,
2013-08-01 02:04:00,64.6,63.7,29.90,WSW,252,0.0,0.0,97,0.00,,,0.00,Wunderground v.1.15,2013-08-01 07:04:00,
2013-08-01 02:09:00,64.5,63.6,29.90,WSW,252,0.0,0.0,97,0.00,,,0.00,Wunderground v.1.15,2013-08-01 07:09:00,
2013-08-01 02:15:00,64.3,63.1,29.90,WSW,252,0.0,0.0,96,0.00,,,0.00,Wunderground v.1.15,2013-08-01 07:15:00,
2013-08-01 02:21:00,64.1,62.9,29.90,WSW,252,0.0,0.0,96,0.00,,,0.00,Wunderground v.1.15,2013-08-01 07:21:00,
2013-08-01 02:27:00,63.9,63.0,29.90,WSW,252,0.0,1.0,97,0.00,,,0.00,Wunderground v.1.15,2013-08-01 07:27:00,
2013-08-01 02:33:00,63.8,62.9,29.89,WSW,252,1.0,1.0,97,0.00,,,0.00,Wunderground v.1.15,2013-08-01 07:33:00,
2013-08-01 02:39:00,63.8,62.9,29.89,WSW,252,0.0,1.0,97,0.00,,,0.00,Wunderground v.1.15,2013-08-01 07:39:00,
2013-08-01 02:44:00,63.9,63.0,29.89,WSW,252,0.0,0.0,97,0.00,,,0.00,Wunderground v.1.15,2013-08-01 07:44:00,
2013-08-01 02:49:00,63.9,63.0,29.89,WSW,252,0.0,0.0,97,0.00,,,0.00,Wunderground v.1.15,2013-08-01 07:49:00,
2013-08-01 02:54:00,63.8,62.9,29.89,WSW,252,0.0,0.0,97,0.00,,,0.00,Wunderground v.1.15,2013-08-01 07:54:00,
2013-08-01 03:00:00,63.7,62.8,29.89,WSW,252,0.0,0.0,97,0.00,,,0.00,Wunderground v.1.15,2013-08-01 08:00:00,
2013-08-01 03:05:00,63.6,62.7,29.89,WSW,252,0.0,0.0,97,0.00,,,0.00,Wunderground v.1.15,2013-08-01 08:05:00,
2013-08-01 03:11:00,63.4,62.5,29.89,WSW,252,0.0,0.0,97,0.00,,,0.00,Wunderground v.1.15,2013-08-01 08:11:00,
2013-08-01 03:17:00,63.1,62.2,29.89,WSW,252,0.0,2.0,97,0.00,,,0.00,Wunderground v.1.15,2013-08-01 08:17:00,
2013-08-01 03:22:00,63.1,62.2,29.89,WSW,252,1.0,2.0,97,0.00,,,0.00,Wunderground v.1.15,2013-08-01 08:22:00,
2013-08-01 03:28:00,63.1,62.2,29.89,WSW,252,1.0,2.0,97,0.00,,,0.00,Wunderground v.1.15,2013-08-01 08:28:00,
2013-08-01 03:34:00,63.1,62.2,29.89,WSW,252,1.0,2.0,97,0.00,,,0.00,Wunderground v.1.15,2013-08-01 08:34:00,
2013-08-01 03:40:00,62.8,61.9,29.89,WSW,252,1.0,2.0,97,0.00,,,0.00,Wunderground v.1.15,2013-08-01 08:40:00,
2013-08-01 03:45:00,63.0,62.1,29.89,WSW,252,1.0,4.0,97,0.00,,,0.00,Wunderground v.1.15,2013-08-01 08:45:00,
2013-08-01 03:51:00,63.2,62.3,29.89,WSW,252,2.0,2.0,97,0.00,,,0.00,Wunderground v.1.15,2013-08-01 08:51:00,
2013-08-01 03:57:00,63.2,62.3,29.88,WSW,252,1.0,2.0,97,0.00,,,0.00,Wunderground v.1.15,2013-08-01 08:57:00,
2013-08-01 04:05:00,62.9,62.0,29.88,WSW,252,0.0,1.0,97,0.00,,,0.00,Wunderground v.1.15,2013-08-01 09:05:00,
2013-08-01 04:11:00,62.9,62.0,29.88,WSW,252,0.0,0.0,97,0.00,,,0.00,Wunderground v.1.15,2013-08-01 09:11:00,
2013-08-01 04:18:00,63.0,62.4,29.88,WSW,252,1.0,2.0,98,0.00,,,0.00,Wunderground v.1.15,2013-08-01 09:18:00,
2013-08-01 04:23:00,63.1,62.5,29.89,WSW,252,1.0,3.0,98,0.00,,,0.00,Wunderground v.1.15,2013-08-01 09:23:00,
2013-08-01 04:34:00,63.0,62.1,29.89,WSW,252,2.0,3.0,97,0.00,,,0.00,Wunderground v.1.15,2013-08-01 09:34:00,
2013-08-01 04:39:00,62.8,61.9,29.89,WSW,252,1.0,3.0,97,0.00,,,0.00,Wunderground v.1.15,2013-08-01 09:39:00,
2013-08-01 04:45:00,62.7,62.1,29.89,WSW,252,1.0,2.0,98,0.00,,,0.00,Wunderground v.1.15,2013-08-01 09:45:00,
2013-08-01 04:51:00,62.7,62.1,29.89,WSW,252,1.0,3.0,98,0.00,,,0.00,Wunderground v.1.15,2013-08-01 09:51:00,
2013-08-01 04:57:00,62.5,61.6,29.89,WSW,252,3.0,4.0,97,0.00,,,0.00,Wunderground v.1.15,2013-08-01 09:57:00,
2013-08-01 05:03:00,62.2,61.3,29.90,West,272,3.0,5.0,97,0.00,,,0.00,Wunderground v.1.15,2013-08-01 10:03:00,
2013-08-01 05:11:00,62.5,61.9,29.90,NW,311,5.0,5.0,98,0.00,,,0.00,Wunderground v.1.15,2013-08-01 10:11:00,
2013-08-01 05:16:00,62.7,62.1,29.90,NW,321,5.0,6.0,98,0.00,,,0.00,Wunderground v.1.15,2013-08-01 10:16:00,
2013-08-01 05:22:00,62.8,61.9,29.90,NW,321,4.0,4.0,97,0.00,,,0.00,Wunderground v.1.15,2013-08-01 10:22:00,
2013-08-01 05:27:00,62.7,61.8,29.91,NW,321,3.0,4.0,97,0.00,,,0.00,Wunderground v.1.15,2013-08-01 10:27:00,
2013-08-01 05:33:00,62.5,61.6,29.91,NW,321,2.0,3.0,97,0.00,,,0.01,Wunderground v.1.15,2013-08-01 10:33:00,
2013-08-01 05:40:00,62.0,60.8,29.91,NW,321,0.0,0.0,96,0.00,,,0.01,Wunderground v.1.15,2013-08-01 10:40:00,
2013-08-01 05:45:00,61.7,60.5,29.92,NW,321,0.0,0.0,96,0.00,,,0.01,Wunderground v.1.15,2013-08-01 10:45:00,
2013-08-01 05:50:00,61.5,60.3,29.92,NW,321,0.0,0.0,96,0.00,,,0.01,Wunderground v.1.15,2013-08-01 10:50:00,
2013-08-01 05:55:00,61.4,60.5,29.92,NW,321,0.0,0.0,97,0.00,,,0.01,Wunderground v.1.15,2013-08-01 10:55:00,
2013-08-01 06:01:00,61.3,60.4,29.92,NW,321,0.0,0.0,97,0.00,,,0.01,Wunderground v.1.15,2013-08-01 11:01:00,
2013-08-01 06:07:00,61.3,60.4,29.92,NW,321,0.0,0.0,97,0.00,,,0.01,Wunderground v.1.15,2013-08-01 11:07:00,
2013-08-01 06:13:00,61.3,60.4,29.92,NW,321,0.0,0.0,97,0.00,,,0.01,Wunderground v.1.15,2013-08-01 11:13:00,
2013-08-01 06:19:00,61.4,60.5,29.92,NW,321,0.0,0.0,97,0.00,,,0.01,Wunderground v.1.15,2013-08-01 11:19:00,
2013-08-01 06:24:00,61.4,60.5,29.92,NW,321,0.0,0.0,97,0.00,,,0.01,Wunderground v.1.15,2013-08-01 11:24:00,
2013-08-01 06:30:00,61.4,60.5,29.92,NW,321,0.0,0.0,97,0.00,,,0.01,Wunderground v.1.15,2013-08-01 11:30:00,
2013-08-01 06:38:00,61.5,60.6,29.92,NW,321,0.0,0.0,97,0.00,,,0.01,Wunderground v.1.15,2013-08-01 11:38:00,
2013-08-01 06:43:00,61.6,60.7,29.92,NW,321,0.0,0.0,97,0.00,,,0.01,Wunderground v.1.15,2013-08-01 11:43:00,
2013-08-01 06:49:00,61.6,60.7,29.93,NW,321,0.0,1.0,97,0.00,,,0.01,Wunderground v.1.15,2013-08-01 11:49:00,
2013-08-01 06:55:00,61.8,60.9,29.93,NW,321,1.0,3.0,97,0.00,,,0.01,Wunderground v.1.15,2013-08-01 11:55:00,
2013-08-01 07:00:00,61.9,61.0,29.93,NW,321,2.0,2.0,97,0.00,,,0.01,Wunderground v.1.15,2013-08-01 12:00:00,
2013-08-01 07:07:00,62.1,61.2,29.93,NW,321,2.0,3.0,97,0.00,,,0.01,Wunderground v.1.15,2013-08-01 12:07:00,
2013-08-01 07:13:00,62.3,61.4,29.92,NW,321,2.0,3.0,97,0.00,,,0.01,Wunderground v.1.15,2013-08-01 12:13:00,
2013-08-01 07:19:00,62.6,61.7,29.92,NW,321,1.0,3.0,97,0.00,,,0.01,Wunderground v.1.15,2013-08-01 12:19:00,
2013-08-01 07:24:00,62.9,62.0,29.92,NW,321,1.0,1.0,97,0.00,,,0.01,Wunderground v.1.15,2013-08-01 12:24:00,
2013-08-01 07:29:00,63.2,62.3,29.92,NW,321,0.0,1.0,97,0.00,,,0.01,Wunderground v.1.15,2013-08-01 12:29:00,
2013-08-01 07:35:00,63.5,62.6,29.92,NW,321,1.0,2.0,97,0.00,,,0.01,Wunderground v.1.15,2013-08-01 12:35:00,
2013-08-01 07:40:00,63.9,63.0,29.92,NW,321,1.0,1.0,97,0.00,,,0.01,Wunderground v.1.15,2013-08-01 12:40:00,
2013-08-01 07:46:00,64.4,63.2,29.92,NW,321,0.0,1.0,96,0.00,,,0.01,Wunderground v.1.15,2013-08-01 12:46:00,
2013-08-01 07:52:00,64.9,63.7,29.92,NW,321,0.0,0.0,96,0.00,,,0.01,Wunderground v.1.15,2013-08-01 12:52:00,
2013-08-01 07:58:00,65.4,64.2,29.92,NW,321,1.0,3.0,96,0.00,,,0.01,Wunderground v.1.15,2013-08-01 12:58:00,
2013-08-01 08:03:00,65.8,64.3,29.92,WNW,289,3.0,5.0,95,0.00,,,0.01,Wunderground v.1.15,2013-08-01 13:03:00,
2013-08-01 08:08:00,66.0,64.5,29.92,WNW,286,4.0,5.0,95,0.00,,,0.01,Wunderground v.1.15,2013-08-01 13:08:00,
2013-08-01 08:13:00,66.4,64.9,29.93,WNW,286,3.0,5.0,95,0.00,,,0.01,Wunderground v.1.15,2013-08-01 13:13:00,
2013-08-01 08:20:00,66.8,65.0,29.93,WNW,286,2.0,2.0,94,0.00,,,0.01,Wunderground v.1.15,2013-08-01 13:20:00,
2013-08-01 08:27:00,67.5,65.1,29.93,WNW,287,1.0,3.0,92,0.00,,,0.01,Wunderground v.1.15,2013-08-01 13:27:00,
2013-08-01 08:34:00,68.0,64.6,29.93,West,279,2.0,5.0,89,0.00,,,0.01,Wunderground v.1.15,2013-08-01 13:34:00,
2013-08-01 08:45:00,69.1,64.7,29.93,West,279,2.0,3.0,86,0.00,,,0.01,Wunderground v.1.15,2013-08-01 13:45:00,
2013-08-01 08:51:00,69.6,64.5,29.93,West,279,1.0,2.0,84,0.00,,,0.01,Wunderground v.1.15,2013-08-01 13:51:00,
2013-08-01 08:57:00,70.0,64.6,29.93,WNW,284,2.0,4.0,83,0.00,,,0.01,Wunderground v.1.15,2013-08-01 13:57:00,
2013-08-01 09:02:00,70.2,64.1,29.93,WNW,294,3.0,4.0,81,0.00,,,0.01,Wunderground v.1.15,2013-08-01 14:02:00,
2013-08-01 09:07:00,70.4,65.3,29.93,WNW,298,3.0,5.0,84,0.00,,,0.01,Wunderground v.1.15,2013-08-01 14:07:00,
2013-08-01 09:12:00,70.6,64.5,29.93,WNW,302,4.0,6.0,81,0.00,,,0.01,Wunderground v.1.15,2013-08-01 14:12:00,
2013-08-01 09:18:00,70.8,64.3,29.93,WNW,303,3.0,6.0,80,0.00,,,0.01,Wunderground v.1.15,2013-08-01 14:18:00,
2013-08-01 09:23:00,71.0,65.2,29.93,WNW,301,3.0,5.0,82,0.00,,,0.01,Wunderground v.1.15,2013-08-01 14:23:00,
2013-08-01 09:30:00,71.5,65.4,29.92,WNW,302,4.0,4.0,81,0.00,,,0.01,Wunderground v.1.15,2013-08-01 14:30:00,
2013-08-01 09:39:00,72.2,64.6,29.92,NW,304,2.0,5.0,77,0.00,,,0.01,Wunderground v.1.15,2013-08-01 14:39:00,
2013-08-01 09:44:00,72.5,64.5,29.92,NW,319,3.0,7.0,76,0.00,,,0.01,Wunderground v.1.15,2013-08-01 14:44:00,
2013-08-01 09:50:00,72.9,64.5,29.92,NW,307,4.0,4.0,75,0.00,,,0.01,Wunderground v.1.15,2013-08-01 14:50:00,
2013-08-01 09:55:00,73.3,63.7,29.92,WNW,290,3.0,6.0,72,0.00,,,0.01,Wunderground v.1.15,2013-08-01 14:55:00,
2013-08-01 10:02:00,73.7,63.7,29.93,WNW,289,3.0,4.0,71,0.00,,,0.01,Wunderground v.1.15,2013-08-01 15:02:00,
2013-08-01 10:07:00,74.0,64.8,29.92,NW,313,4.0,10.0,73,0.00,,,0.01,Wunderground v.1.15,2013-08-01 15:07:00,
2013-08-01 10:13:00,74.2,63.8,29.93,WNW,299,5.0,7.0,70,0.00,,,0.01,Wunderground v.1.15,2013-08-01 15:13:00,
2013-08-01 10:19:00,74.6,62.9,29.93,NW,316,6.0,10.0,67,0.00,,,0.01,Wunderground v.1.15,2013-08-01 15:19:00,
2013-08-01 10:24:00,74.8,62.7,29.93,NW,309,6.0,7.0,66,0.00,,,0.01,Wunderground v.1.15,2013-08-01 15:24:00,
2013-08-01 10:30:00,75.1,61.2,29.93,WNW,287,6.0,6.0,62,0.00,,,0.01,Wunderground v.1.15,2013-08-01 15:30:00,
2013-08-01 10:35:00,75.4,63.7,29.93,WNW,292,5.0,6.0,67,0.00,,,0.01,Wunderground v.1.15,2013-08-01 15:35:00,
2013-08-01 10:41:00,75.9,62.8,29.93,West,281,3.0,5.0,64,0.00,,,0.01,Wunderground v.1.15,2013-08-01 15:41:00,
2013-08-01 10:48:00,75.7,62.7,29.93,WNW,290,6.0,11.0,64,0.00,,,0.01,Wunderground v.1.15,2013-08-01 15:48:00,
2013-08-01 10:53:00,75.7,60.8,29.93,NW,319,7.0,13.0,60,0.00,,,0.01,Wunderground v.1.15,2013-08-01 15:53:00,
2013-08-01 10:59:00,75.9,60.5,29.94,WNW,286,7.0,13.0,59,0.00,,,0.01,Wunderground v.1.15,2013-08-01 15:59:00,
2013-08-01 11:04:00,75.5,60.2,29.94,WNW,295,7.0,8.0,59,0.00,,,0.01,Wunderground v.1.15,2013-08-01 16:04:00,
2013-08-01 11:09:00,75.2,59.4,29.94,WNW,302,7.0,11.0,58,0.00,,,0.01,Wunderground v.1.15,2013-08-01 16:09:00,
2013-08-01 11:15:00,75.2,61.7,29.94,NW,304,7.0,9.0,63,0.00,,,0.01,Wunderground v.1.15,2013-08-01 16:15:00,
2013-08-01 11:20:00,75.3,60.9,29.94,NW,317,7.0,7.0,61,0.00,,,0.01,Wunderground v.1.15,2013-08-01 16:20:00,
2013-08-01 11:26:00,75.6,61.2,29.94,WNW,282,6.0,7.0,61,0.00,,,0.01,Wunderground v.1.15,2013-08-01 16:26:00,
2013-08-01 11:32:00,76.2,60.3,29.94,WNW,294,6.0,9.0,58,0.00,,,0.01,Wunderground v.1.15,2013-08-01 16:32:00,
2013-08-01 11:38:00,76.4,60.5,29.94,WNW,301,8.0,14.0,58,0.00,,,0.01,Wunderground v.1.15,2013-08-01 16:38:00,
2013-08-01 11:44:00,76.6,60.7,29.94,West,277,9.0,13.0,58,0.00,,,0.01,Wunderground v.1.15,2013-08-01 16:44:00,
2013-08-01 11:50:00,76.7,60.8,29.94,NW,310,9.0,12.0,58,0.00,,,0.01,Wunderground v.1.15,2013-08-01 16:50:00,
2013-08-01 11:55:00,76.7,61.3,29.94,WNW,298,10.0,12.0,59,0.00,,,0.01,Wunderground v.1.15,2013-08-01 16:55:00,
2013-08-01 12:02:00,76.6,62.6,29.94,WNW,300,9.0,10.0,62,0.00,,,0.01,Wunderground v.1.15,2013-08-01 17:02:00,
2013-08-01 12:08:00,76.8,61.4,29.94,NW,313,9.0,14.0,59,0.00,,,0.01,Wunderground v.1.15,2013-08-01 17:08:00,
2013-08-01 12:14:00,76.9,62.0,29.94,NW,306,10.0,12.0,60,0.00,,,0.01,Wunderground v.1.15,2013-08-01 17:14:00,
2013-08-01 12:19:00,76.9,61.5,29.94,WNW,290,9.0,12.0,59,0.00,,,0.01,Wunderground v.1.15,2013-08-01 17:19:00,
2013-08-01 12:25:00,77.1,61.7,29.94,WNW,296,9.0,10.0,59,0.00,,,0.01,Wunderground v.1.15,2013-08-01 17:25:00,
2013-08-01 12:31:00,77.3,62.3,29.93,NW,304,8.0,8.0,60,0.00,,,0.01,Wunderground v.1.15,2013-08-01 17:31:00,
2013-08-01 12:37:00,77.6,63.5,29.93,WNW,298,7.0,8.0,62,0.00,,,0.01,Wunderground v.1.15,2013-08-01 17:37:00,
2013-08-01 12:43:00,77.8,62.8,29.93,WNW,284,7.0,11.0,60,0.00,,,0.01,Wunderground v.1.15,2013-08-01 17:43:00,
2013-08-01 12:49:00,77.7,63.2,29.93,West,273,7.0,11.0,61,0.00,,,0.01,Wunderground v.1.15,2013-08-01 17:49:00,
2013-08-01 12:54:00,77.8,64.2,29.93,WSW,257,7.0,8.0,63,0.00,,,0.01,Wunderground v.1.15,2013-08-01 17:54:00,
2013-08-01 12:59:00,78.0,64.4,29.93,WNW,295,6.0,9.0,63,0.00,,,0.01,Wunderground v.1.15,2013-08-01 17:59:00,
2013-08-01 13:06:00,78.1,63.6,29.93,West,274,7.0,9.0,61,0.00,,,0.01,Wunderground v.1.15,2013-08-01 18:06:00,
2013-08-01 13:11:00,78.1,62.6,29.93,WNW,286,7.0,7.0,59,0.00,,,0.01,Wunderground v.1.15,2013-08-01 18:11:00,
2013-08-01 13:16:00,78.1,63.1,29.93,West,263,7.0,8.0,60,0.00,,,0.01,Wunderground v.1.15,2013-08-01 18:16:00,
2013-08-01 13:23:00,78.4,64.3,29.92,NW,325,7.0,9.0,62,0.00,,,0.01,Wunderground v.1.15,2013-08-01 18:23:00,
2013-08-01 13:28:00,78.5,64.9,29.92,NW,315,6.0,11.0,63,0.00,,,0.01,Wunderground v.1.15,2013-08-01 18:28:00,
2013-08-01 13:34:00,78.5,63.5,29.92,NW,319,9.0,11.0,60,0.00,,,0.01,Wunderground v.1.15,2013-08-01 18:34:00,
2013-08-01 13:39:00,78.4,61.9,29.92,NNW,334,10.0,13.0,57,0.00,,,0.01,Wunderground v.1.15,2013-08-01 18:39:00,
2013-08-01 13:46:00,77.9,64.3,29.92,NNW,338,10.0,16.0,63,0.00,,,0.01,Wunderground v.1.15,2013-08-01 18:46:00,
2013-08-01 13:51:00,78.2,64.6,29.92,WNW,282,8.0,11.0,63,0.00,,,0.01,Wunderground v.1.15,2013-08-01 18:51:00,
2013-08-01 13:57:00,77.9,63.4,29.93,NW,304,9.0,12.0,61,0.00,,,0.01,Wunderground v.1.15,2013-08-01 18:57:00,
2013-08-01 14:03:00,78.2,62.7,29.92,NW,325,10.0,13.0,59,0.00,,,0.01,Wunderground v.1.15,2013-08-01 19:03:00,
2013-08-01 14:09:00,78.3,61.3,29.92,WNW,303,10.0,13.0,56,0.00,,,0.01,Wunderground v.1.15,2013-08-01 19:09:00,
2013-08-01 14:15:00,78.6,64.0,29.92,West,279,9.0,18.0,61,0.00,,,0.01,Wunderground v.1.15,2013-08-01 19:15:00,
2013-08-01 14:22:00,78.7,62.7,29.92,NW,319,8.0,13.0,58,0.00,,,0.01,Wunderground v.1.15,2013-08-01 19:22:00,
2013-08-01 14:28:00,78.6,63.1,29.92,NW,305,9.0,13.0,59,0.00,,,0.01,Wunderground v.1.15,2013-08-01 19:28:00,
2013-08-01 14:34:00,78.9,62.4,29.92,WNW,290,8.0,9.0,57,0.00,,,0.01,Wunderground v.1.15,2013-08-01 19:34:00,
2013-08-01 14:41:00,78.9,62.4,29.92,NW,306,9.0,11.0,57,0.00,,,0.01,Wunderground v.1.15,2013-08-01 19:41:00,
2013-08-01 14:47:00,78.6,62.1,29.92,NW,325,11.0,15.0,57,0.00,,,0.01,Wunderground v.1.15,2013-08-01 19:47:00,
2013-08-01 14:53:00,78.3,62.8,29.92,NW,306,12.0,12.0,59,0.00,,,0.01,Wunderground v.1.15,2013-08-01 19:53:00,
2013-08-01 14:58:00,78.2,62.2,29.92,NW,305,10.0,12.0,58,0.00,,,0.01,Wunderground v.1.15,2013-08-01 19:58:00,
2013-08-01 15:04:00,78.3,64.2,29.91,West,281,7.0,12.0,62,0.00,,,0.01,Wunderground v.1.15,2013-08-01 20:04:00,
2013-08-01 15:10:00,78.6,63.6,29.91,WNW,302,8.0,8.0,60,0.00,,,0.01,Wunderground v.1.15,2013-08-01 20:10:00,
2013-08-01 15:15:00,78.5,63.9,29.91,West,268,8.0,10.0,61,0.00,,,0.01,Wunderground v.1.15,2013-08-01 20:15:00,
2013-08-01 15:20:00,79.0,64.4,29.91,WNW,288,7.0,7.0,61,0.00,,,0.01,Wunderground v.1.15,2013-08-01 20:20:00,
2013-08-01 15:27:00,79.3,64.7,29.91,WNW,282,7.0,13.0,61,0.00,,,0.01,Wunderground v.1.15,2013-08-01 20:27:00,
2013-08-01 15:33:00,79.4,64.3,29.90,West,273,7.0,12.0,60,0.00,,,0.01,Wunderground v.1.15,2013-08-01 20:33:00,
2013-08-01 15:38:00,79.0,63.0,29.90,WNW,301,6.0,12.0,58,0.00,,,0.01,Wunderground v.1.15,2013-08-01 20:38:00,
2013-08-01 15:41:00,79.1,63.5,29.90,WNW,286,7.0,7.0,59,0.00,,,0.01,Wunderground v.1.15,2013-08-01 20:41:00,
2013-08-01 15:47:00,79.3,63.7,29.90,West,278,7.0,13.0,59,0.00,,,0.01,Wunderground v.1.15,2013-08-01 20:47:00,
2013-08-01 15:53:00,79.3,63.2,29.90,NNW,331,8.0,10.0,58,0.00,,,0.01,Wunderground v.1.15,2013-08-01 20:53:00,
2013-08-01 15:59:00,79.3,63.2,29.90,WNW,296,7.0,10.0,58,0.00,,,0.01,Wunderground v.1.15,2013-08-01 20:59:00,
2013-08-01 16:04:00,79.5,62.9,29.90,WNW,299,6.0,8.0,57,0.00,,,0.01,Wunderground v.1.15,2013-08-01 21:04:00,
2013-08-01 16:06:00,79.4,62.8,29.90,WNW,300,6.0,8.0,57,0.00,,,0.01,Wunderground v.1.15,2013-08-01 21:06:00,
2013-08-01 16:12:00,79.4,62.8,29.90,West,268,6.0,8.0,57,0.00,,,0.01,Wunderground v.1.15,2013-08-01 21:12:00,
2013-08-01 16:17:00,79.3,62.7,29.90,WNW,302,7.0,9.0,57,0.00,,,0.01,Wunderground v.1.15,2013-08-01 21:17:00,
2013-08-01 16:22:00,79.1,63.1,29.90,WNW,294,7.0,9.0,58,0.00,,,0.01,Wunderground v.1.15,2013-08-01 21:22:00,
2013-08-01 16:28:00,79.3,63.2,29.90,NW,306,7.0,9.0,58,0.00,,,0.01,Wunderground v.1.15,2013-08-01 21:28:00,
2013-08-01 16:34:00,79.4,62.3,29.90,WNW,283,7.0,10.0,56,0.00,,,0.01,Wunderground v.1.15,2013-08-01 21:34:00,
2013-08-01 16:40:00,79.4,62.8,29.89,NW,317,7.0,7.0,57,0.00,,,0.01,Wunderground v.1.15,2013-08-01 21:40:00,
2013-08-01 16:45:00,79.6,63.5,29.89,WNW,286,6.0,7.0,58,0.00,,,0.01,Wunderground v.1.15,2013-08-01 21:45:00,
2013-08-01 16:53:00,80.0,64.9,29.88,West,281,4.0,5.0,60,0.00,,,0.01,Wunderground v.1.15,2013-08-01 21:53:00,
2013-08-01 16:58:00,80.1,63.0,29.88,WNW,294,3.0,8.0,56,0.00,,,0.01,Wunderground v.1.15,2013-08-01 21:58:00,
2013-08-01 17:03:00,80.0,63.9,29.87,WNW,286,4.0,5.0,58,0.00,,,0.01,Wunderground v.1.15,2013-08-01 22:03:00,
2013-08-01 17:08:00,79.8,63.7,29.88,WNW,287,3.0,5.0,58,0.00,,,0.01,Wunderground v.1.15,2013-08-01 22:08:00,
2013-08-01 17:14:00,79.4,63.3,29.87,WNW,294,3.0,5.0,58,0.00,,,0.01,Wunderground v.1.15,2013-08-01 22:14:00,
2013-08-01 17:19:00,79.3,64.2,29.87,WNW,294,4.0,5.0,60,0.00,,,0.01,Wunderground v.1.15,2013-08-01 22:19:00,
2013-08-01 17:25:00,79.2,64.1,29.87,WNW,289,3.0,8.0,60,0.00,,,0.01,Wunderground v.1.15,2013-08-01 22:25:00,
2013-08-01 17:31:00,78.9,63.4,29.88,WNW,289,3.0,3.0,59,0.00,,,0.01,Wunderground v.1.15,2013-08-01 22:31:00,
2013-08-01 17:37:00,79.0,64.4,29.87,West,279,2.0,4.0,61,0.00,,,0.01,Wunderground v.1.15,2013-08-01 22:37:00,
2013-08-01 17:42:00,79.2,65.1,29.87,NW,306,3.0,3.0,62,0.00,,,0.01,Wunderground v.1.15,2013-08-01 22:42:00,
2013-08-01 17:49:00,79.6,64.0,29.86,WNW,301,2.0,3.0,59,0.00,,,0.01,Wunderground v.1.15,2013-08-01 22:49:00,
2013-08-01 17:54:00,79.8,64.2,29.86,WNW,295,1.0,2.0,59,0.00,,,0.01,Wunderground v.1.15,2013-08-01 22:54:00,
2013-08-01 18:00:00,79.8,64.2,29.87,WNW,298,2.0,3.0,59,0.00,,,0.01,Wunderground v.1.15,2013-08-01 23:00:00,
2013-08-01 18:06:00,79.5,63.4,29.87,NW,306,4.0,5.0,58,0.00,,,0.01,Wunderground v.1.15,2013-08-01 23:06:00,
2013-08-01 18:11:00,79.4,65.2,29.87,WNW,296,3.0,5.0,62,0.00,,,0.01,Wunderground v.1.15,2013-08-01 23:11:00,
2013-08-01 18:16:00,79.4,63.8,29.87,WNW,293,2.0,5.0,59,0.00,,,0.01,Wunderground v.1.15,2013-08-01 23:16:00,
2013-08-01 18:21:00,79.3,64.2,29.87,WNW,291,3.0,3.0,60,0.00,,,0.01,Wunderground v.1.15,2013-08-01 23:21:00,
2013-08-01 18:27:00,79.4,64.8,29.87,WNW,290,2.0,3.0,61,0.00,,,0.01,Wunderground v.1.15,2013-08-01 23:27:00,
2013-08-01 18:33:00,79.6,65.4,29.87,WNW,290,1.0,3.0,62,0.00,,,0.01,Wunderground v.1.15,2013-08-01 23:33:00,
2013-08-01 18:39:00,79.6,64.5,29.86,WNW,290,1.0,3.0,60,0.00,,,0.01,Wunderground v.1.15,2013-08-01 23:39:00,
2013-08-01 18:45:00,79.6,65.9,29.86,WNW,290,0.0,1.0,63,0.00,,,0.01,Wunderground v.1.15,2013-08-01 23:45:00,
2013-08-01 18:51:00,79.5,65.3,29.86,WNW,290,0.0,0.0,62,0.00,,,0.01,Wunderground v.1.15,2013-08-01 23:51:00,
2013-08-01 18:57:00,79.2,66.4,29.86,WNW,290,0.0,0.0,65,0.00,,,0.01,Wunderground v.1.15,2013-08-01 23:57:00,
2013-08-01 19:02:00,78.9,66.6,29.86,WNW,290,0.0,0.0,66,0.00,,,0.01,Wunderground v.1.15,2013-08-02 00:02:00,
2013-08-01 19:07:00,78.7,66.8,29.86,WNW,290,0.0,0.0,67,0.00,,,0.01,Wunderground v.1.15,2013-08-02 00:07:00,
2013-08-01 19:12:00,78.3,66.0,29.86,WNW,290,0.0,0.0,66,0.00,,,0.01,Wunderground v.1.15,2013-08-02 00:12:00,
2013-08-01 19:18:00,77.6,66.6,29.86,WNW,290,0.0,0.0,69,0.00,,,0.01,Wunderground v.1.15,2013-08-02 00:18:00,
2013-08-01 19:25:00,76.9,66.8,29.86,WNW,290,0.0,0.0,71,0.00,,,0.01,Wunderground v.1.15,2013-08-02 00:25:00,
2013-08-01 19:31:00,76.6,66.5,29.86,WNW,290,0.0,0.0,71,0.00,,,0.01,Wunderground v.1.15,2013-08-02 00:31:00,
2013-08-01 19:37:00,76.3,66.6,29.86,WNW,290,0.0,0.0,72,0.00,,,0.01,Wunderground v.1.15,2013-08-02 00:37:00,
2013-08-01 19:42:00,75.9,67.0,29.86,WNW,290,0.0,0.0,74,0.00,,,0.01,Wunderground v.1.15,2013-08-02 00:42:00,
2013-08-01 19:48:00,75.3,65.6,29.86,WNW,290,0.0,0.0,72,0.00,,,0.01,Wunderground v.1.15,2013-08-02 00:48:00,
2013-08-01 19:54:00,74.9,65.3,29.85,WNW,290,0.0,0.0,72,0.00,,,0.01,Wunderground v.1.15,2013-08-02 00:54:00,
2013-08-01 19:59:00,74.7,65.5,29.86,WNW,290,0.0,0.0,73,0.00,,,0.01,Wunderground v.1.15,2013-08-02 00:59:00,
2013-08-01 20:05:00,74.4,65.6,29.86,WNW,290,0.0,0.0,74,0.00,,,0.01,Wunderground v.1.15,2013-08-02 01:05:00,
2013-08-01 20:12:00,74.0,67.1,29.86,WNW,290,0.0,0.0,79,0.00,,,0.01,Wunderground v.1.15,2013-08-02 01:12:00,
2013-08-01 20:17:00,73.3,66.4,29.85,WNW,290,0.0,0.0,79,0.00,,,0.01,Wunderground v.1.15,2013-08-02 01:17:00,
2013-08-01 20:22:00,72.8,66.6,29.85,WNW,290,0.0,0.0,81,0.00,,,0.01,Wunderground v.1.15,2013-08-02 01:22:00,
2013-08-01 20:28:00,72.2,66.4,29.85,WNW,290,0.0,0.0,82,0.00,,,0.01,Wunderground v.1.15,2013-08-02 01:28:00,
2013-08-01 20:33:00,71.9,66.1,29.85,WNW,290,0.0,0.0,82,0.00,,,0.01,Wunderground v.1.15,2013-08-02 01:33:00,
2013-08-01 20:39:00,71.6,65.5,29.85,WNW,290,0.0,0.0,81,0.00,,,0.01,Wunderground v.1.15,2013-08-02 01:39:00,
2013-08-01 20:44:00,71.6,65.5,29.85,WNW,290,0.0,0.0,81,0.00,,,0.01,Wunderground v.1.15,2013-08-02 01:44:00,
2013-08-01 20:50:00,71.7,65.2,29.85,WNW,290,0.0,0.0,80,0.00,,,0.01,Wunderground v.1.15,2013-08-02 01:50:00,
2013-08-01 20:55:00,71.7,65.6,29.85,WNW,290,0.0,0.0,81,0.00,,,0.01,Wunderground v.1.15,2013-08-02 01:55:00,
2013-08-01 21:02:00,71.5,65.7,29.86,WNW,290,1.0,4.0,82,0.00,,,0.01,Wunderground v.1.15,2013-08-02 02:02:00,
2013-08-01 21:08:00,71.4,65.3,29.86,WSW,241,2.0,4.0,81,0.00,,,0.01,Wunderground v.1.15,2013-08-02 02:08:00,
2013-08-01 21:13:00,71.5,65.7,29.86,SW,235,3.0,3.0,82,0.00,,,0.01,Wunderground v.1.15,2013-08-02 02:13:00,
2013-08-01 21:19:00,71.3,65.2,29.85,SW,235,3.0,3.0,81,0.00,,,0.01,Wunderground v.1.15,2013-08-02 02:19:00,
2013-08-01 21:24:00,71.5,65.0,29.86,SW,235,2.0,2.0,80,0.00,,,0.01,Wunderground v.1.15,2013-08-02 02:24:00,
2013-08-01 21:30:00,71.4,64.9,29.86,SW,235,2.0,2.0,80,0.00,,,0.01,Wunderground v.1.15,2013-08-02 02:30:00,
2013-08-01 21:36:00,71.3,64.8,29.86,SW,235,2.0,2.0,80,0.00,,,0.01,Wunderground v.1.15,2013-08-02 02:36:00,
2013-08-01 21:41:00,71.3,64.8,29.85,SW,235,2.0,3.0,80,0.00,,,0.01,Wunderground v.1.15,2013-08-02 02:41:00,
2013-08-01 21:47:00,71.1,64.6,29.85,SW,235,3.0,3.0,80,0.00,,,0.01,Wunderground v.1.15,2013-08-02 02:47:00,
2013-08-01 21:52:00,71.0,64.5,29.85,SSW,202,3.0,5.0,80,0.00,,,0.01,Wunderground v.1.15,2013-08-02 02:52:00,
2013-08-01 21:58:00,71.1,64.6,29.86,SSW,198,4.0,5.0,80,0.00,,,0.01,Wunderground v.1.15,2013-08-02 02:58:00,
2013-08-01 22:03:00,70.9,64.4,29.86,SSW,198,3.0,4.0,80,0.00,,,0.01,Wunderground v.1.15,2013-08-02 03:03:00,
2013-08-01 22:09:00,70.5,64.4,29.87,SSW,198,2.0,4.0,81,0.00,,,0.01,Wunderground v.1.15,2013-08-02 03:09:00,
2013-08-01 22:14:00,70.2,64.4,29.87,SSW,198,1.0,2.0,82,0.00,,,0.01,Wunderground v.1.15,2013-08-02 03:14:00,
2013-08-01 22:19:00,70.0,64.2,29.86,SSW,198,0.0,3.0,82,0.00,,,0.01,Wunderground v.1.15,2013-08-02 03:19:00,
2013-08-01 22:25:00,70.0,64.2,29.86,SSW,198,2.0,3.0,82,0.00,,,0.01,Wunderground v.1.15,2013-08-02 03:25:00,
2013-08-01 22:32:00,69.9,64.2,29.86,SSW,198,3.0,4.0,82,0.00,,,0.01,Wunderground v.1.15,2013-08-02 03:32:00,
2013-08-01 22:38:00,69.8,64.1,29.86,SSW,198,3.0,4.0,82,0.00,,,0.01,Wunderground v.1.15,2013-08-02 03:38:00,
2013-08-01 22:45:00,69.5,63.8,29.85,SSW,192,3.0,4.0,82,0.00,,,0.01,Wunderground v.1.15,2013-08-02 03:45:00,
2013-08-01 22:51:00,69.3,63.9,29.85,South,189,4.0,4.0,83,0.00,,,0.01,Wunderground v.1.15,2013-08-02 03:51:00,
2013-08-01 22:57:00,69.2,63.8,29.86,South,186,3.0,4.0,83,0.00,,,0.01,Wunderground v.1.15,2013-08-02 03:57:00,
2013-08-01 23:01:00,69.0,64.0,29.85,South,186,3.0,3.0,84,0.00,,,0.01,Wunderground v.1.15,2013-08-02 04:01:00,
2013-08-01 23:03:00,69.0,64.0,29.85,South,184,3.0,3.0,84,0.00,,,0.01,Wunderground v.1.15,2013-08-02 04:03:00,
2013-08-01 23:04:00,69.0,64.0,29.85,South,181,3.0,5.0,84,0.00,,,0.01,Wunderground v.1.15,2013-08-02 04:04:00,
2013-08-01 23:07:00,69.0,64.0,29.85,South,177,3.0,6.0,84,0.00,,,0.01,Wunderground v.1.15,2013-08-02 04:07:00,
2013-08-01 23:08:00,69.0,64.0,29.85,South,176,4.0,6.0,84,0.00,,,0.01,Wunderground v.1.15,2013-08-02 04:08:00,
2013-08-01 23:13:00,69.0,64.0,29.84,South,174,4.0,4.0,84,0.00,,,0.01,Wunderground v.1.15,2013-08-02 04:13:00,
2013-08-01 23:18:00,68.8,63.8,29.84,South,174,4.0,5.0,84,0.00,,,0.01,Wunderground v.1.15,2013-08-02 04:18:00,
2013-08-01 23:23:00,68.6,63.9,29.84,South,174,4.0,4.0,85,0.00,,,0.01,Wunderground v.1.15,2013-08-02 04:23:00,
2013-08-01 23:26:00,68.5,63.8,29.84,South,173,4.0,4.0,85,0.00,,,0.01,Wunderground v.1.15,2013-08-02 04:26:00,
2013-08-01 23:32:00,68.3,63.6,29.84,South,170,4.0,5.0,85,0.00,,,0.01,Wunderground v.1.15,2013-08-02 04:32:00,
2013-08-01 23:37:00,68.2,63.5,29.84,South,170,4.0,5.0,85,0.00,,,0.01,Wunderground v.1.15,2013-08-02 04:37:00,
2013-08-01 23:42:00,68.1,63.8,29.84,South,170,4.0,5.0,86,0.00,,,0.01,Wunderground v.1.15,2013-08-02 04:42:00,
2013-08-01 23:48:00,67.9,63.6,29.84,South,170,4.0,6.0,86,0.00,,,0.01,Wunderground v.1.15,2013-08-02 04:48:00,
2013-08-01 23:54:00,67.7,63.4,29.84,South,170,4.0,5.0,86,0.00,,,0.01,Wunderground v.1.15,2013-08-02 04:54:00,
2013-08-01 23:59:00,67.5,63.2,29.83,South,169,4.0,5.0,86,0.00,,,0.00,Wunderground v.1.15,2013-08-02 04:59:00,